Home > Weather > Brockton > Past weeks

Flag for USA Past Weather in Brockton, Massachusetts, USA — Yesterday and Last 2 Weeks

Now
83 °F

Warm.


Feels Like: 82 °F
Forecast: 67 / 89 °F
Wind: 9 mph from West

Location: East Milton

Current Time: Jul 24, 2016 at 12:47:40 PM

Latest Report: Jul 24, 2016 at 11:54 AM


Visibility: N/A

Pressure: 29.96 "Hg

Humidity: 41%

Dew Point: 57 °F

Location of BrocktonLocation

Past Weather in Brockton — Graph

°F

Brockton Temperature Yesterday

Maximum temperature yesterday: 94 °F (at 3:54 PM)
Minimum temperature yesterday: 68 °F (at 10:54 PM)
Average temperature yesterday: 79 °F

High & Low Weather Summary for the Past Weeks

 TemperatureHumidityPressure
High94 °F (Jul 22, 3:54 PM)100% (Jul 9, 9:54 PM)30.24 "Hg (Jul 9, 9:54 PM)
Low56 °F (Jul 10, 11:54 PM)25% (Jul 21, 2:54 PM)29.73 "Hg (Jul 23, 3:54 PM)
Average73 °F67%30.00 "Hg
* Reported Jul 9 10:54 AM — Jul 24 10:54 AM, Brockton, Weather by CustomWeather, © 2016

Note: Actual official high and low records may vary slightly from our data, if they occured in-between our weather recording intervals... More about our weather records

Advertising

Brockton Weather History for the Previous 24 Hours

Scroll right to see more
 ConditionsComfort  
Time TempWeatherWind HumidityBarometerVisibility
10:54 AM
Sun, Jul 24
79 °FWarm.6 mph47%29.96 "HgN/A
9:54 AM79 °FWarm.6 mph48%29.97 "HgN/A
8:54 AM74 °FMild.6 mph60%29.96 "HgN/A
7:54 AM70 °FMild.10 mph68%29.96 "HgN/A
6:54 AM65 °FMild.10 mph76%29.96 "HgN/A
5:54 AM64 °FMild.12 mph78%29.93 "HgN/A
4:54 AM64 °FMild.12 mph75%29.91 "HgN/A
3:54 AM65 °FMild.12 mph73%29.91 "HgN/A
2:54 AM65 °FMild.14 mph73%29.91 "HgN/A
1:54 AM66 °FMild.13 mph70%29.90 "HgN/A
12:54 AM67 °FMild.12 mph68%29.90 "HgN/A
11:54 PM
Sat, Jul 23
68 °FMild.13 mph68%29.88 "HgN/A
10:54 PM68 °FMild.10 mph68%29.88 "HgN/A
9:54 PM69 °FMild.8 mph63%29.87 "HgN/A
8:54 PM71 °FMild.8 mph57%29.85 "HgN/A
7:54 PM75 °FMild.30 mph48%29.82 "HgN/A
6:54 PM84 °FWarm.12 mph43%29.76 "HgN/A
5:54 PM88 °FHot.13 mph30%29.75 "HgN/A
4:54 PM93 °FHot.14 mph26%29.74 "HgN/A
3:54 PM94 °FExtremely hot.17 mph27%29.73 "HgN/A
2:54 PM91 °FHot.10 mph32%29.75 "HgN/A
1:54 PM90 °FHot.10 mph35%29.76 "HgN/A
12:54 PM90 °FHot.7 mph37%29.78 "HgN/A
Weather by CustomWeather, © 2016

See weather overviewHow to use our weather pages